QPF
0.03 0.03 0.04 0.04 0.01 0.02 0.02 0.02 0.02 0.02 0.03 0.03 0.03 0.04 0.06 0.06 0.04 0.04 0.03 0.03 0.04 0.07 0.11 0.12 0.15 0.16 0.11 0.09 0.11 0.11 0.13 0.13 0.12 0.12 0.14 0.13 0.12 0.10 0.10 0.09 0.07 0.07 0.07 0.06 0.05 0.03 0.02 0.02 0.02
0.01 0.01 0.03 0.03 0.02 0.03 0.02 0.01 0.02 0.02 0.02 0.02 0.03 0.04 0.05 0.05 0.03 0.03 0.04 0.05 0.06 0.06 0.08 0.09 0.14 0.16 0.14 0.11 0.14 0.15 0.12 0.09 0.09 0.09 0.08 0.08 0.10 0.09 0.08 0.07 0.07 0.06 0.07 0.06 0.04 0.03 0.02 0.01 0.02
0.01 0.01 0.02 0.02 0.03 0.03 0.02 0.01 0.02 0.03 0.02 0.02 0.04 0.04 0.05 0.06 0.04 0.04 0.04 0.04 0.06 0.05 0.06 0.09 0.13 0.18 0.19 0.15 0.15 0.12 0.07 0.06 0.06 0.06 0.05 0.05 0.05 0.05 0.06 0.06 0.06 0.06 0.06 0.05 0.04 0.03 0.03 0.03 0.03
0.01 0.01 0.01 0.02 0.01 0.01 0.02 0.02 0.03 0.05 0.04 0.02 0.03 0.04 0.03 0.07 0.07 0.04 0.02 0.03 0.04 0.03 0.06 0.08 0.11 0.21 0.22 0.13 0.12 0.08 0.07 0.06 0.07 0.07 0.05 0.04 0.04 0.04 0.05 0.07 0.07 0.07 0.06 0.07 0.04 0.03 0.04 0.04 0.04
0.01 0.01 0.01 0.01 0.01 0.01 0.03 0.03 0.03 0.05 0.07 0.06 0.03 0.03 0.04 0.07 0.07 0.03 0.02 0.02 0.03 0.02 0.02 0.04 0.08 0.17 0.20 0.13 0.09 0.06 0.05 0.05 0.05 0.05 0.04 0.05 0.05 0.06 0.04 0.04 0.05 0.06 0.07 0.08 0.06 0.04 0.04 0.03 0.04
0.02 0.01 0.02 0.01 0.01 0.01 0.02 0.04 0.04 0.04 0.05 0.07 0.04 0.03 0.06 0.07 0.07 0.06 0.03 0.02 0.03 0.02 0.02 0.04 0.09 0.12 0.11 0.08 0.08 0.06 0.04 0.04 0.04 0.03 0.03 0.04 0.04 0.06 0.06 0.05 0.05 0.05 0.08 0.10 0.06 0.04 0.03 0.03 0.03
0.02 0.03 0.02 0.02 0.02 0.02 0.03 0.04 0.04 0.05 0.03 0.03 0.04 0.03 0.04 0.05 0.04 0.03 0.03 0.02 0.03 0.03 0.02 0.03 0.05 0.06 0.07 0.08 0.07 0.05 0.03 0.03 0.03 0.04 0.05 0.07 0.07 0.09 0.09 0.07 0.08 0.09 0.10 0.09 0.07 0.05 0.03 0.03 0.03
0.01 0.02 0.03 0.02 0.03 0.03 0.04 0.05 0.04 0.05 0.04 0.02 0.03 0.05 0.04 0.04 0.02 0.02 0.02 0.02 0.02 0.03 0.01 0.01 0.01 0.01 0.04 0.05 0.04 0.05 0.04 0.03 0.03 0.05 0.07 0.08 0.07 0.08 0.07 0.05 0.06 0.08 0.07 0.06 0.05 0.04 0.03 0.02 0.03
0.01 0.02 0.03 0.03 0.03 0.03 0.05 0.05 0.05 0.06 0.06 0.02 0.01 0.03 0.05 0.03 0.02 0.02 0.01 0.02 0.02 0.02 0.01 0.01 0.01 0.02 0.03 0.02 0.01 0.01 0.01 0.01 0.01 0.01 0.01 0.02 0.03 0.06 0.05 0.04 0.06 0.06 0.05 0.04 0.05 0.05 0.03 0.02 0.03
0.02 0.02 0.02 0.02 0.02 0.02 0.05 0.06 0.04 0.04 0.05 0.03 0.02 0.02 0.04 0.06 0.02 0.01 0.01 0.01 0.02 0.03 0.02 0.01 0.01 0.02 0.01 0.00 0.00 0.00 0.00 0.00 0.00 0.00 0.00 0.00 0.01 0.03 0.03 0.03 0.04 0.03 0.03 0.03 0.04 0.04 0.03 0.01 0.02
0.02 0.03 0.01 0.01 0.01 0.02 0.04 0.05 0.03 0.03 0.04 0.03 0.03 0.04 0.04 0.05 0.03 0.01 0.01 0.01 0.01 0.02 0.02 0.00 0.02 0.02 0.01 0.01 0.00 0.00 0.00 0.00 0.00 0.00 0.00 0.00 0.00 0.01 0.02 0.02 0.01 0.01 0.01 0.01 0.01 0.01 0.01 0.01 0.02
0.01 0.01 0.01 0.01 0.01 0.01 0.03 0.04 0.03 0.03 0.03 0.03 0.03 0.05 0.05 0.06 0.03 0.01 0.01 0.00 0.00 0.01 0.01 0.00 0.00 0.00 0.00 0.00 0.00 0.00 0.00 0.00 0.00 0.00 0.00 0.00 0.00 0.00 0.01 0.01 0.00 0.01 0.01 0.02 0.01 0.01 0.01 0.01 0.02
0.01 0.01 0.01 0.01 0.01 0.02 0.02 0.03 0.03 0.03 0.02 0.04 0.05 0.05 0.07 0.05 0.03 0.01 0.01 0.00 0.00 0.00 0.01 0.01 0.00 0.00 0.00 0.00 0.00 0.00 0.00 0.00 0.00 0.00 0.00 0.00 0.00 0.00 0.00 0.00 0.01 0.01 0.01 0.01 0.01 0.01 0.01 0.01 0.01
0.01 0.01 0.02 0.02 0.02 0.02 0.02 0.02 0.02 0.02 0.02 0.03 0.05 0.05 0.07 0.05 0.03 0.01 0.01 0.00 0.00 0.00 0.01 0.01 0.00 0.00 0.00 0.00 0.01 0.01 0.01 0.00 0.00 0.00 0.00 0.00 0.00 0.00 0.00 0.00 0.01 0.01 0.02 0.01 0.02 0.01 0.00 0.00 0.00
0.01 0.02 0.03 0.02 0.01 0.02 0.03 0.03 0.02 0.01 0.02 0.03 0.03 0.03 0.04 0.04 0.04 0.02 0.01 0.00 0.00 0.00 0.01 0.00 0.00 0.00 0.00 0.00 0.00 0.01 0.02 0.01 0.00 0.00 0.00 0.00 0.00 0.00 0.00 0.00 0.00 0.01 0.01 0.01 0.01 0.00 0.00 0.00 0.01
0.01 0.03 0.04 0.02 0.02 0.02 0.03 0.03 0.02 0.02 0.02 0.02 0.02 0.02 0.03 0.05 0.04 0.03 0.01 0.01 0.00 0.00 0.01 0.00 0.00 0.00 0.00 0.00 0.00 0.01 0.02 0.02 0.01 0.00 0.00 0.00 0.00 0.00 0.00 0.00 0.00 0.00 0.00 0.01 0.01 0.01 0.00 0.01 0.02
0.02 0.03 0.03 0.02 0.03 0.03 0.03 0.02 0.02 0.02 0.02 0.02 0.01 0.01 0.02 0.03 0.02 0.02 0.01 0.01 0.00 0.00 0.01 0.00 0.00 0.00 0.00 0.00 0.00 0.00 0.02 0.03 0.02 0.01 0.00 0.00 0.00 0.00 0.00 0.00 0.00 0.00 0.00 0.00 0.00 0.01 0.01 0.01 0.02
0.02 0.01 0.01 0.01 0.02 0.02 0.02 0.02 0.02 0.02 0.01 0.01 0.01 0.01 0.02 0.02 0.02 0.01 0.01 0.01 0.01 0.00 0.00 0.00 0.00 0.00 0.00 0.00 0.00 0.00 0.00 0.01 0.02 0.02 0.01 0.00 0.00 0.00 0.00 0.00 0.00 0.00 0.01 0.01 0.01 0.01 0.01 0.01 0.02
0.01 0.01 0.01 0.01 0.01 0.01 0.02 0.02 0.02 0.01 0.01 0.01 0.01 0.01 0.01 0.02 0.02 0.01 0.01 0.01 0.01 0.00 0.00 0.00 0.00 0.00 0.00 0.00 0.00 0.00 0.00 0.00 0.01 0.02 0.01 0.01 0.00 0.00 0.00 0.00 0.01 0.01 0.01 0.01 0.01 0.01 0.01 0.01 0.03
0.01 0.01 0.00 0.00 0.00 0.01 0.01 0.02 0.01 0.01 0.01 0.01 0.00 0.01 0.01 0.01 0.02 0.02 0.01 0.01 0.01 0.00 0.00 0.00 0.00 0.00 0.00 0.00 0.01 0.00 0.00 0.01 0.01 0.01 0.01 0.01 0.00 0.00 0.00 0.00 0.01 0.01 0.01 0.01 0.01 0.01 0.01 0.01 0.03
0.01 0.01 0.00 0.00 0.00 0.01 0.01 0.02 0.02 0.01 0.01 0.01 0.01 0.00 0.00 0.01 0.01 0.01 0.01 0.01 0.00 0.01 0.00 0.00 0.00 0.00 0.01 0.01 0.00 0.00 0.00 0.00 0.01 0.01 0.00 0.00 0.01 0.01 0.00 0.00 0.00 0.00 0.01 0.01 0.01 0.01 0.02 0.02 0.02
0.01 0.01 0.00 0.00 0.01 0.01 0.01 0.02 0.01 0.01 0.01 0.00 0.00 0.00 0.00 0.00 0.00 0.00 0.00 0.01 0.00 0.01 0.01 0.01 0.01 0.01 0.01 0.01 0.01 0.00 0.01 0.01 0.01 0.02 0.02 0.01 0.01 0.00 0.00 0.00 0.00 0.00 0.01 0.01 0.01 0.01 0.01 0.02 0.02
0.01 0.00 0.00 0.00 0.01 0.01 0.00 0.01 0.01 0.00 0.00 0.00 0.00 0.00 0.01 0.00 0.00 0.00 0.00 0.01 0.00 0.01 0.01 0.01 0.01 0.01 0.01 0.01 0.01 0.01 0.00 0.00 0.00 0.01 0.01 0.01 0.01 0.01 0.00 0.00 0.01 0.01 0.00 0.00 0.00 0.00 0.01 0.03 0.02
0.00 0.00 0.00 0.00 0.01 0.01 0.00 0.00 0.00 0.00 0.00 0.00 0.00 0.00 0.01 0.01 0.00 0.01 0.01 0.01 0.01 0.01 0.02 0.02 0.01 0.01 0.01 0.01 0.01 0.00 0.01 0.00 0.00 0.00 0.01 0.02 0.01 0.01 0.00 0.00 0.00 0.00 0.01 0.00 0.00 0.00 0.01 0.02 0.01
0.00 0.01 0.01 0.01 0.01 0.01 0.00 0.00 0.00 0.00 0.00 0.00 0.00 0.00 0.00 0.00 0.00 0.00 0.01 0.01 0.01 0.02 0.02 0.02 0.01 0.01 0.01 0.01 0.01 0.00 0.00 0.00 0.00 0.00 0.00 0.01 0.01 0.01 0.00 0.00 0.00 0.00 0.00 0.00 0.00 0.00 0.01 0.02 0.01
0.00 0.01 0.01 0.01 0.00 0.00 0.00 0.00 0.00 0.00 0.00 0.00 0.00 0.00 0.00 0.00 0.00 0.00 0.00 0.00 0.01 0.02 0.03 0.02 0.02 0.01 0.01 0.00 0.00 0.00 0.00 0.00 0.00 0.00 0.00 0.00 0.00 0.00 0.00 0.00 0.00 0.00 0.00 0.00 0.00 0.00 0.01 0.01 0.01
0.01 0.01 0.01 0.01 0.00 0.00 0.00 0.00 0.00 0.00 0.00 0.00 0.00 0.00 0.01 0.00 0.01 0.00 0.00 0.00 0.00 0.02 0.03 0.03 0.03 0.02 0.01 0.01 0.01 0.01 0.00 0.00 0.00 0.00 0.00 0.00 0.00 0.00 0.00 0.00 0.00 0.00 0.00 0.00 0.00 0.00 0.01 0.01 0.01
0.01 0.01 0.01 0.01 0.01 0.01 0.00 0.00 0.00 0.00 0.00 0.00 0.00 0.00 0.01 0.00 0.00 0.00 0.01 0.01 0.01 0.01 0.04 0.04 0.03 0.02 0.01 0.01 0.01 0.01 0.01 0.00 0.00 0.00 0.00 0.00 0.00 0.00 0.00 0.00 0.00 0.00 0.00 0.00 0.00 0.00 0.00 0.01 0.01
0.01 0.01 0.01 0.01 0.01 0.01 0.01 0.00 0.00 0.00 0.00 0.00 0.01 0.01 0.00 0.00 0.01 0.00 0.01 0.01 0.01 0.02 0.04 0.04 0.03 0.02 0.01 0.01 0.01 0.01 0.02 0.03 0.02 0.01 0.00 0.01 0.01 0.00 0.00 0.00 0.00 0.00 0.00 0.00 0.00 0.00 0.00 0.00 0.01
0.00 0.01 0.01 0.02 0.01 0.01 0.01 0.00 0.00 0.00 0.00 0.00 0.01 0.01 0.00 0.00 0.01 0.01 0.01 0.02 0.02 0.03 0.04 0.04 0.04 0.03 0.02 0.02 0.01 0.01 0.02 0.02 0.02 0.01 0.01 0.01 0.01 0.01 0.00 0.00 0.00 0.00 0.01 0.01 0.00 0.00 0.00 0.01 0.01
MSLP
1012.46 1012.97 1013.64 1014.41 1015.19 1015.89 1016.45 1016.85 1017.09 1017.21 1017.30 1017.43 1017.65 1018.00 1018.44 1018.92 1019.34 1019.62 1019.69 1019.53 1019.15 1018.63 1018.06 1017.53 1017.14 1016.91 1016.83 1016.87 1016.97 1017.05 1017.06 1016.99 1016.86 1016.69 1016.52 1016.40 1016.33 1016.32 1016.35 1016.37 1016.37 1016.33 1016.23 1016.11 1015.98 1015.86 1015.75 1015.66 1015.58
1012.80 1013.42 1014.18 1014.99 1015.79 1016.48 1017.01 1017.36 1017.55 1017.64 1017.70 1017.82 1018.05 1018.41 1018.87 1019.36 1019.80 1020.09 1020.17 1020.01 1019.64 1019.13 1018.56 1018.03 1017.63 1017.40 1017.32 1017.35 1017.44 1017.52 1017.54 1017.47 1017.33 1017.15 1016.96 1016.79 1016.67 1016.59 1016.55 1016.51 1016.46 1016.38 1016.29 1016.18 1016.07 1015.98 1015.91 1015.84 1015.76
1013.22 1013.92 1014.72 1015.55 1016.32 1016.96 1017.44 1017.74 1017.88 1017.94 1018.00 1018.11 1018.35 1018.71 1019.17 1019.67 1020.10 1020.38 1020.46 1020.30 1019.95 1019.46 1018.92 1018.42 1018.03 1017.80 1017.72 1017.74 1017.81 1017.88 1017.90 1017.84 1017.70 1017.51 1017.31 1017.12 1016.96 1016.83 1016.73 1016.63 1016.54 1016.45 1016.35 1016.25 1016.18 1016.12 1016.08 1016.03 1015.97
1013.68 1014.43 1015.24 1016.03 1016.74 1017.31 1017.72 1017.96 1018.07 1018.12 1018.18 1018.31 1018.56 1018.92 1019.36 1019.83 1020.22 1020.48 1020.54 1020.40 1020.07 1019.62 1019.13 1018.68 1018.33 1018.11 1018.02 1018.03 1018.08 1018.12 1018.12 1018.05 1017.92 1017.75 1017.55 1017.36 1017.18 1017.03 1016.89 1016.76 1016.64 1016.53 1016.44 1016.37 1016.32 1016.30 1016.28 1016.26 1016.20
1014.14 1014.90 1015.68 1016.41 1017.03 1017.51 1017.84 1018.03 1018.12 1018.18 1018.27 1018.43 1018.69 1019.05 1019.46 1019.88 1020.22 1020.43 1020.46 1020.32 1020.02 1019.63 1019.21 1018.83 1018.53 1018.34 1018.25 1018.23 1018.24 1018.25 1018.22 1018.13 1018.01 1017.85 1017.67 1017.50 1017.33 1017.18 1017.03 1016.89 1016.76 1016.65 1016.56 1016.51 1016.48 1016.48 1016.49 1016.48 1016.42
1014.58 1015.33 1016.05 1016.69 1017.20 1017.58 1017.84 1017.99 1018.08 1018.17 1018.30 1018.51 1018.80 1019.15 1019.52 1019.87 1020.14 1020.28 1020.27 1020.12 1019.87 1019.54 1019.20 1018.90 1018.67 1018.52 1018.43 1018.38 1018.35 1018.30 1018.23 1018.12 1017.99 1017.85 1017.70 1017.56 1017.42 1017.28 1017.14 1017.01 1016.88 1016.77 1016.69 1016.64 1016.63 1016.64 1016.66 1016.65 1016.59
1015.02 1015.73 1016.37 1016.90 1017.31 1017.59 1017.78 1017.90 1018.01 1018.15 1018.34 1018.60 1018.91 1019.26 1019.59 1019.87 1020.05 1020.11 1020.05 1019.89 1019.67 1019.41 1019.16 1018.95 1018.79 1018.68 1018.59 1018.52 1018.44 1018.33 1018.21 1018.07 1017.93 1017.80 1017.68 1017.56 1017.46 1017.35 1017.23 1017.10 1016.97 1016.85 1016.77 1016.72 1016.71 1016.73 1016.74 1016.72 1016.66
1015.46 1016.14 1016.69 1017.12 1017.41 1017.60 1017.73 1017.83 1017.96 1018.15 1018.41 1018.72 1019.07 1019.41 1019.69 1019.89 1019.99 1019.97 1019.86 1019.68 1019.48 1019.29 1019.12 1019.00 1018.92 1018.85 1018.78 1018.68 1018.55 1018.40 1018.22 1018.05 1017.89 1017.76 1017.65 1017.57 1017.48 1017.39 1017.28 1017.15 1017.01 1016.88 1016.79 1016.73 1016.70 1016.70 1016.70 1016.68 1016.61
1015.96 1016.59 1017.08 1017.40 1017.59 1017.69 1017.76 1017.84 1017.99 1018.22 1018.53 1018.89 1019.26 1019.59 1019.83 1019.97 1019.98 1019.89 1019.72 1019.53 1019.35 1019.21 1019.12 1019.08 1019.07 1019.05 1018.99 1018.88 1018.72 1018.52 1018.30 1018.09 1017.91 1017.77 1017.67 1017.60 1017.52 1017.43 1017.31 1017.17 1017.01 1016.86 1016.74 1016.65 1016.61 1016.60 1016.59 1016.55 1016.48
1016.54 1017.14 1017.56 1017.79 1017.89 1017.91 1017.91 1017.96 1018.10 1018.35 1018.69 1019.08 1019.46 1019.78 1019.99 1020.06 1020.01 1019.86 1019.66 1019.45 1019.29 1019.20 1019.18 1019.20 1019.25 1019.27 1019.24 1019.13 1018.95 1018.72 1018.46 1018.22 1018.02 1017.87 1017.77 1017.68 1017.60 1017.49 1017.35 1017.18 1016.99 1016.81 1016.66 1016.55 1016.49 1016.47 1016.45 1016.42 1016.34
1017.21 1017.79 1018.15 1018.32 1018.33 1018.27 1018.20 1018.20 1018.30 1018.54 1018.88 1019.27 1019.64 1019.94 1020.12 1020.16 1020.06 1019.87 1019.65 1019.44 1019.30 1019.25 1019.28 1019.36 1019.46 1019.52 1019.51 1019.40 1019.22 1018.97 1018.70 1018.45 1018.23 1018.07 1017.95 1017.85 1017.74 1017.60 1017.43 1017.22 1016.99 1016.78 1016.60 1016.48 1016.42 1016.39 1016.39 1016.37 1016.32
1017.95 1018.52 1018.85 1018.96 1018.90 1018.75 1018.61 1018.53 1018.58 1018.77 1019.07 1019.43 1019.78 1020.05 1020.21 1020.23 1020.12 1019.92 1019.69 1019.50 1019.38 1019.36 1019.42 1019.55 1019.68 1019.77 1019.78 1019.69 1019.52 1019.27 1019.00 1018.74 1018.52 1018.35 1018.21 1018.09 1017.95 1017.78 1017.57 1017.32 1017.07 1016.83 1016.64 1016.51 1016.46 1016.46 1016.48 1016.50 1016.49
1018.73 1019.30 1019.61 1019.67 1019.55 1019.33 1019.10 1018.95 1018.91 1019.02 1019.25 1019.55 1019.86 1020.11 1020.25 1020.26 1020.16 1019.99 1019.78 1019.62 1019.53 1019.53 1019.62 1019.76 1019.92 1020.02 1020.05 1019.98 1019.82 1019.60 1019.34 1019.09 1018.87 1018.69 1018.54 1018.39 1018.23 1018.03 1017.79 1017.51 1017.24 1016.99 1016.80 1016.69 1016.66 1016.70 1016.78 1016.86 1016.91
1019.48 1020.05 1020.34 1020.38 1020.22 1019.95 1019.65 1019.41 1019.28 1019.29 1019.43 1019.65 1019.90 1020.12 1020.25 1020.29 1020.22 1020.08 1019.93 1019.80 1019.74 1019.77 1019.87 1020.02 1020.17 1020.28 1020.32 1020.27 1020.13 1019.93 1019.70 1019.47 1019.26 1019.08 1018.92 1018.76 1018.57 1018.35 1018.09 1017.80 1017.51 1017.27 1017.10 1017.02 1017.03 1017.13 1017.27 1017.43 1017.56
1020.14 1020.71 1021.00 1021.03 1020.86 1020.55 1020.20 1019.89 1019.67 1019.58 1019.62 1019.76 1019.95 1020.13 1020.26 1020.32 1020.30 1020.23 1020.13 1020.05 1020.03 1020.07 1020.17 1020.31 1020.45 1020.56 1020.60 1020.56 1020.45 1020.27 1020.07 1019.86 1019.67 1019.50 1019.33 1019.15 1018.95 1018.72 1018.45 1018.16 1017.88 1017.65 1017.51 1017.47 1017.53 1017.68 1017.90 1018.14 1018.37
1020.66 1021.21 1021.50 1021.55 1021.39 1021.09 1020.73 1020.37 1020.08 1019.91 1019.85 1019.91 1020.03 1020.18 1020.32 1020.41 1020.44 1020.43 1020.40 1020.37 1020.38 1020.43 1020.52 1020.64 1020.76 1020.85 1020.89 1020.86 1020.77 1020.62 1020.45 1020.27 1020.09 1019.92 1019.75 1019.57 1019.36 1019.12 1018.85 1018.57 1018.31 1018.10 1017.98 1017.97 1018.07 1018.27 1018.55 1018.88 1019.20
1020.98 1021.52 1021.83 1021.91 1021.80 1021.53 1021.18 1020.82 1020.49 1020.25 1020.12 1020.10 1020.17 1020.29 1020.43 1020.55 1020.63 1020.69 1020.71 1020.73 1020.77 1020.82 1020.90 1021.00 1021.09 1021.16 1021.19 1021.17 1021.10 1020.99 1020.85 1020.69 1020.53 1020.37 1020.19 1020.01 1019.79 1019.55 1019.29 1019.02 1018.77 1018.58 1018.47 1018.48 1018.60 1018.83 1019.15 1019.53 1019.94
1021.12 1021.64 1021.97 1022.10 1022.06 1021.86 1021.56 1021.21 1020.87 1020.60 1020.41 1020.33 1020.35 1020.44 1020.58 1020.73 1020.86 1020.97 1021.05 1021.11 1021.16 1021.22 1021.28 1021.34 1021.41 1021.47 1021.50 1021.49 1021.45 1021.37 1021.26 1021.13 1020.98 1020.83 1020.65 1020.46 1020.24 1020.00 1019.74 1019.48 1019.25 1019.06 1018.96 1018.96 1019.07 1019.30 1019.63 1020.05 1020.51
1021.10 1021.59 1021.94 1022.14 1022.17 1022.06 1021.83 1021.52 1021.19 1020.90 1020.68 1020.55 1020.53 1020.60 1020.73 1020.90 1021.08 1021.24 1021.36 1021.45 1021.52 1021.57 1021.61 1021.65 1021.70 1021.75 1021.78 1021.80 1021.79 1021.76 1021.69 1021.59 1021.46 1021.31 1021.13 1020.94 1020.72 1020.48 1020.23 1019.98 1019.75 1019.56 1019.44 1019.41 1019.49 1019.68 1019.99 1020.40 1020.89
1020.95 1021.43 1021.81 1022.06 1022.18 1022.15 1021.98 1021.72 1021.41 1021.11 1020.85 1020.69 1020.63 1020.69 1020.82 1021.02 1021.23 1021.43 1021.60 1021.72 1021.79 1021.84 1021.87 1021.89 1021.93 1021.98 1022.03 1022.08 1022.12 1022.13 1022.11 1022.05 1021.95 1021.81 1021.64 1021.44 1021.22 1020.99 1020.75 1020.51 1020.28 1020.09 1019.95 1019.88 1019.90 1020.03 1020.28 1020.65 1021.12
1020.77 1021.22 1021.62 1021.92 1022.10 1022.13 1022.03 1021.80 1021.50 1021.17 1020.89 1020.69 1020.61 1020.65 1020.80 1021.02 1021.27 1021.52 1021.72 1021.87 1021.96 1022.01 1022.03 1022.04 1022.08 1022.14 1022.23 1022.32 1022.42 1022.49 1022.52 1022.51 1022.44 1022.32 1022.16 1021.97 1021.76 1021.54 1021.32 1021.09 1020.88 1020.68 1020.52 1020.41 1020.36 1020.41 1020.58 1020.87 1021.29
1020.61 1021.04 1021.44 1021.77 1021.99 1022.05 1021.97 1021.74 1021.43 1021.07 1020.75 1020.52 1020.42 1020.46 1020.62 1020.88 1021.18 1021.47 1021.73 1021.91 1022.02 1022.08 1022.10 1022.12 1022.16 1022.24 1022.36 1022.51 1022.67 1022.81 1022.90 1022.94 1022.91 1022.82 1022.69 1022.51 1022.32 1022.12 1021.92 1021.73 1021.53 1021.35 1021.17 1021.03 1020.93 1020.90 1020.98 1021.18 1021.52
1020.52 1020.93 1021.33 1021.66 1021.88 1021.94 1021.83 1021.58 1021.22 1020.82 1020.46 1020.19 1020.07 1020.11 1020.30 1020.61 1020.97 1021.33 1021.64 1021.87 1022.01 1022.08 1022.11 1022.14 1022.20 1022.30 1022.46 1022.66 1022.88 1023.08 1023.24 1023.34 1023.36 1023.30 1023.19 1023.05 1022.88 1022.71 1022.55 1022.39 1022.24 1022.08 1021.92 1021.76 1021.62 1021.53 1021.52 1021.63 1021.87
1020.52 1020.91 1021.30 1021.61 1021.80 1021.82 1021.67 1021.35 1020.93 1020.46 1020.04 1019.74 1019.61 1019.67 1019.90 1020.26 1020.69 1021.12 1021.50 1021.78 1021.97 1022.07 1022.11 1022.15 1022.22 1022.35 1022.54 1022.79 1023.06 1023.32 1023.54 1023.69 1023.75 1023.74 1023.66 1023.54 1023.41 1023.28 1023.16 1023.06 1022.95 1022.84 1022.72 1022.57 1022.43 1022.30 1022.23 1022.25 1022.39
1020.60 1020.98 1021.34 1021.62 1021.76 1021.72 1021.49 1021.10 1020.59 1020.05 1019.58 1019.25 1019.11 1019.19 1019.47 1019.89 1020.40 1020.91 1021.36 1021.71 1021.94 1022.07 1022.13 1022.18 1022.27 1022.41 1022.62 1022.90 1023.22 1023.53 1023.80 1023.99 1024.10 1024.12 1024.07 1023.99 1023.89 1023.80 1023.73 1023.69 1023.65 1023.60 1023.53 1023.43 1023.30 1023.16 1023.06 1023.01 1023.07
1020.71 1021.08 1021.42 1021.67 1021.75 1021.65 1021.34 1020.85 1020.27 1019.66 1019.14 1018.78 1018.65 1018.75 1019.08 1019.57 1020.15 1020.74 1021.26 1021.66 1021.94 1022.11 1022.20 1022.26 1022.35 1022.50 1022.73 1023.03 1023.37 1023.71 1024.02 1024.25 1024.39 1024.45 1024.43 1024.38 1024.31 1024.26 1024.24 1024.25 1024.28 1024.31 1024.30 1024.26 1024.18 1024.07 1023.95 1023.87 1023.86
1020.79 1021.17 1021.50 1021.71 1021.75 1021.58 1021.19 1020.64 1019.99 1019.34 1018.78 1018.41 1018.27 1018.40 1018.77 1019.32 1019.96 1020.61 1021.20 1021.66 1021.98 1022.17 1022.28 1022.36 1022.46 1022.61 1022.85 1023.16 1023.52 1023.88 1024.21 1024.48 1024.65 1024.73 1024.74 1024.72 1024.68 1024.67 1024.69 1024.75 1024.84 1024.94 1025.01 1025.04 1025.02 1024.95 1024.85 1024.77 1024.72
1020.80 1021.18 1021.50 1021.69 1021.70 1021.48 1021.05 1020.46 1019.77 1019.08 1018.51 1018.14 1018.02 1018.17 1018.56 1019.15 1019.83 1020.53 1021.15 1021.65 1022.00 1022.23 1022.36 1022.45 1022.56 1022.73 1022.97 1023.29 1023.66 1024.04 1024.39 1024.68 1024.88 1024.99 1025.03 1025.03 1025.02 1025.03 1025.09 1025.20 1025.34 1025.49 1025.63 1025.73 1025.77 1025.76 1025.71 1025.64 1025.57
1020.70 1021.09 1021.40 1021.58 1021.56 1021.33 1020.88 1020.27 1019.58 1018.90 1018.33 1017.97 1017.86 1018.02 1018.43 1019.02 1019.72 1020.42 1021.06 1021.58 1021.96 1022.21 1022.37 1022.48 1022.61 1022.80 1023.06 1023.39 1023.78 1024.18 1024.55 1024.86 1025.09 1025.23 1025.30 1025.33 1025.35 1025.39 1025.47 1025.61 1025.78 1025.98 1026.17 1026.33 1026.44 1026.49 1026.48 1026.44 1026.39
1020.48 1020.88 1021.19 1021.35 1021.33 1021.09 1020.65 1020.06 1019.38 1018.73 1018.19 1017.84 1017.75 1017.91 1018.31 1018.89 1019.56 1020.25 1020.89 1021.41 1021.80 1022.07 1022.26 1022.41 1022.57 1022.78 1023.07 1023.44 1023.85 1024.27 1024.68 1025.03 1025.29 1025.47 1025.58 1025.64 1025.69 1025.76 1025.86 1026.01 1026.21 1026.43 1026.66 1026.86 1027.01 1027.11 1027.16 1027.17 1027.14
Thickness
5781 5784 5785 5779 5770 5763 5755 5759 5766 5764 5766 5770 5773 5771 5766 5761 5757 5749 5762 5771 5771 5769 5768 5766 5764 5764 5764 5764 5764 5764 5763 5763 5762 5760 5759 5758 5758 5757 5757 5756 5755 5755 5754 5754 5754 5754 5754 5755 5755
5782 5783 5778 5772 5762 5751 5750 5759 5760 5763 5766 5771 5771 5769 5764 5759 5763 5762 5764 5767 5768 5768 5766 5764 5762 5761 5761 5761 5761 5761 5760 5760 5759 5758 5757 5756 5755 5755 5754 5754 5753 5752 5751 5751 5751 5752 5752 5752 5753
5781 5780 5772 5765 5756 5752 5749 5757 5759 5763 5768 5768 5764 5765 5760 5755 5760 5762 5764 5766 5766 5765 5763 5761 5759 5759 5758 5758 5758 5758 5757 5757 5756 5755 5755 5754 5753 5752 5751 5751 5750 5750 5749 5749 5749 5749 5749 5749 5749
5778 5772 5769 5759 5748 5752 5755 5757 5760 5759 5762 5766 5764 5757 5757 5759 5761 5762 5764 5764 5764 5762 5761 5758 5757 5756 5755 5755 5755 5755 5755 5754 5753 5752 5752 5751 5750 5750 5749 5749 5748 5748 5747 5746 5746 5746 5746 5746 5746
5774 5766 5755 5748 5746 5751 5756 5759 5761 5758 5757 5760 5762 5752 5749 5755 5761 5762 5762 5762 5761 5760 5758 5756 5753 5753 5753 5753 5753 5752 5752 5751 5751 5750 5749 5749 5748 5747 5747 5746 5746 5745 5745 5745 5744 5744 5744 5744 5744
5763 5760 5748 5741 5742 5748 5753 5757 5759 5755 5755 5757 5756 5750 5744 5753 5755 5757 5759 5758 5758 5757 5755 5753 5751 5750 5750 5750 5750 5749 5749 5749 5748 5748 5747 5746 5746 5745 5744 5744 5744 5743 5743 5743 5742 5742 5741 5741 5741
5757 5752 5745 5743 5740 5743 5748 5756 5755 5753 5752 5753 5757 5747 5744 5749 5752 5755 5756 5756 5755 5754 5753 5752 5752 5750 5748 5747 5747 5747 5746 5746 5745 5745 5744 5743 5743 5742 5742 5742 5742 5742 5741 5741 5740 5740 5739 5738 5738
5761 5753 5742 5742 5739 5739 5749 5752 5753 5753 5749 5756 5758 5747 5741 5746 5751 5753 5753 5752 5752 5751 5751 5751 5750 5750 5749 5747 5744 5744 5743 5743 5742 5742 5741 5741 5741 5741 5740 5740 5740 5740 5740 5739 5738 5738 5737 5736 5736
5760 5747 5737 5739 5738 5739 5748 5747 5748 5754 5750 5750 5753 5752 5750 5749 5750 5748 5747 5747 5746 5747 5749 5749 5749 5748 5747 5746 5743 5742 5741 5740 5741 5741 5739 5740 5743 5742 5741 5738 5737 5737 5737 5737 5736 5736 5735 5735 5735
5753 5739 5736 5743 5747 5744 5745 5745 5746 5745 5742 5741 5743 5745 5747 5746 5745 5744 5743 5743 5743 5744 5746 5747 5746 5745 5745 5744 5743 5743 5742 5740 5742 5742 5740 5741 5740 5739 5738 5735 5735 5735 5735 5735 5735 5735 5735 5736 5736
5748 5738 5739 5743 5748 5747 5743 5743 5747 5742 5735 5739 5739 5740 5742 5742 5742 5741 5741 5742 5741 5742 5743 5744 5743 5743 5743 5742 5742 5741 5740 5738 5739 5740 5739 5738 5738 5738 5737 5737 5737 5736 5736 5736 5734 5736 5736 5736 5734
5742 5739 5742 5742 5745 5744 5742 5741 5740 5739 5739 5745 5745 5744 5741 5739 5739 5739 5739 5740 5740 5740 5740 5741 5742 5742 5741 5740 5739 5739 5739 5738 5738 5737 5737 5737 5737 5737 5736 5737 5736 5736 5736 5735 5735 5734 5735 5734 5734
5738 5735 5738 5740 5741 5741 5741 5737 5736 5735 5741 5744 5743 5740 5739 5739 5738 5740 5740 5740 5740 5738 5737 5738 5739 5740 5739 5738 5736 5737 5736 5737 5736 5734 5735 5735 5735 5735 5735 5735 5733 5734 5734 5734 5733 5733 5732 5731 5730
5737 5735 5735 5736 5737 5737 5734 5733 5733 5732 5738 5738 5737 5735 5736 5736 5737 5737 5737 5737 5737 5736 5736 5736 5736 5736 5737 5736 5735 5734 5733 5732 5733 5732 5732 5733 5732 5733 5732 5733 5731 5732 5732 5732 5731 5730 5728 5726 5725
5737 5730 5728 5730 5733 5733 5732 5724 5727 5733 5735 5733 5733 5733 5733 5734 5735 5735 5735 5735 5736 5735 5735 5734 5734 5734 5734 5733 5732 5731 5730 5730 5730 5729 5730 5730 5730 5730 5730 5730 5730 5729 5729 5730 5729 5727 5725 5723 5721
5732 5725 5717 5723 5728 5730 5725 5715 5726 5733 5732 5729 5731 5731 5730 5731 5733 5734 5734 5734 5734 5734 5733 5732 5731 5732 5731 5730 5728 5728 5728 5727 5727 5726 5727 5727 5727 5728 5727 5727 5727 5726 5726 5726 5725 5724 5722 5720 5718
5721 5716 5714 5718 5727 5728 5724 5717 5725 5730 5729 5727 5728 5729 5729 5728 5730 5732 5733 5733 5732 5732 5731 5730 5730 5729 5728 5726 5725 5725 5725 5724 5723 5723 5723 5724 5724 5724 5724 5723 5723 5723 5723 5723 5722 5720 5719 5716 5713
5713 5715 5714 5714 5722 5723 5720 5720 5724 5727 5726 5726 5727 5728 5728 5727 5728 5731 5731 5731 5730 5730 5730 5729 5727 5726 5725 5724 5723 5721 5721 5721 5720 5719 5719 5719 5720 5720 5720 5720 5720 5720 5720 5719 5718 5716 5714 5713 5711
5722 5717 5712 5715 5723 5719 5717 5719 5723 5726 5724 5725 5726 5727 5727 5728 5731 5731 5729 5728 5728 5727 5727 5726 5725 5723 5722 5721 5720 5718 5718 5718 5718 5716 5716 5716 5716 5716 5717 5717 5717 5716 5716 5715 5715 5713 5711 5709 5710
5718 5713 5712 5714 5719 5717 5716 5717 5725 5727 5725 5726 5727 5728 5728 5728 5729 5727 5727 5727 5726 5725 5725 5724 5723 5722 5721 5719 5719 5717 5716 5715 5715 5713 5712 5713 5713 5713 5714 5714 5714 5713 5712 5711 5711 5710 5709 5707 5707
5714 5713 5712 5710 5712 5715 5712 5712 5720 5726 5728 5728 5730 5731 5730 5728 5727 5727 5725 5725 5724 5724 5723 5723 5722 5720 5718 5717 5716 5714 5713 5713 5712 5710 5710 5709 5709 5710 5710 5710 5711 5709 5710 5708 5707 5707 5705 5704 5705
5707 5716 5714 5710 5707 5706 5708 5703 5718 5724 5723 5726 5728 5729 5729 5729 5729 5727 5725 5724 5723 5723 5723 5722 5720 5720 5718 5716 5715 5713 5711 5709 5709 5709 5708 5707 5706 5707 5707 5707 5707 5707 5707 5705 5705 5705 5704 5702 5702
5711 5716 5713 5710 5708 5706 5709 5705 5718 5724 5720 5726 5729 5731 5731 5731 5730 5728 5726 5725 5725 5723 5721 5720 5719 5718 5717 5716 5713 5712 5711 5710 5709 5708 5706 5706 5705 5704 5704 5704 5704 5704 5704 5703 5702 5702 5701 5701 5700
5713 5710 5708 5708 5706 5696 5707 5704 5711 5724 5726 5729 5732 5733 5733 5732 5731 5729 5728 5726 5724 5722 5719 5718 5716 5715 5715 5714 5713 5712 5709 5708 5706 5705 5704 5704 5703 5702 5701 5701 5701 5701 5700 5700 5699 5699 5698 5698 5697
5710 5701 5691 5690 5690 5696 5710 5705 5715 5733 5735 5734 5734 5735 5734 5733 5731 5729 5726 5723 5721 5719 5717 5716 5714 5713 5713 5712 5712 5711 5709 5708 5706 5705 5703 5702 5702 5700 5699 5699 5699 5698 5697 5696 5696 5695 5695 5694 5693
5705 5705 5692 5684 5687 5699 5704 5705 5724 5735 5737 5738 5737 5736 5733 5732 5730 5728 5727 5724 5721 5718 5716 5714 5713 5712 5711 5710 5711 5710 5708 5706 5706 5704 5703 5702 5700 5699 5697 5696 5695 5694 5693 5693 5692 5692 5691 5691 5690
5703 5703 5710 5701 5699 5695 5705 5715 5726 5733 5732 5733 5734 5732 5730 5730 5729 5728 5726 5724 5721 5718 5716 5715 5713 5711 5709 5709 5708 5708 5707 5704 5703 5702 5701 5700 5698 5696 5694 5693 5692 5691 5689 5689 5689 5688 5687 5687 5686
5710 5707 5699 5693 5683 5685 5698 5706 5714 5722 5726 5728 5730 5729 5729 5729 5728 5727 5725 5723 5721 5719 5716 5714 5712 5711 5709 5708 5706 5704 5703 5702 5701 5700 5698 5697 5695 5693 5692 5690 5689 5688 5686 5685 5685 5684 5682 5682 5680
5697 5698 5697 5696 5695 5687 5686 5703 5727 5727 5728 5727 5729 5730 5729 5727 5726 5725 5724 5723 5720 5717 5714 5711 5710 5709 5707 5706 5704 5702 5700 5699 5698 5697 5695 5694 5692 5690 5689 5688 5686 5685 5684 5682 5681 5680 5679 5678 5678
5704 5702 5697 5687 5688 5693 5691 5704 5731 5729 5730 5728 5728 5728 5728 5726 5725 5724 5722 5720 5717 5714 5712 5710 5709 5707 5706 5704 5702 5700 5698 5696 5695 5694 5692 5691 5689 5687 5686 5684 5683 5681 5680 5679 5678 5676 5675 5674 5673